| time (UTC) | temp F | wind direction | speed MPH | gust MPH | rain 1hr in | rain 24hr in | rain mn in | humidity % | barometer mb |
| 20260506190329 | 49 | 302 | 3.0 | 7.0 | 0.00 | 0.37 | 0.37 | 81 | 1007.1 |
| 20260506185329 | 50 | 288 | 2.0 | 7.0 | 0.00 | 0.37 | 0.37 | 80 | 1007.1 |
| 20260506184329 | 50 | 329 | 4.0 | 5.0 | 0.00 | 0.37 | 0.37 | 80 | 1007.0 |
| 20260506183329 | 50 | 266 | 3.0 | 4.0 | 0.00 | 0.37 | 0.37 | 80 | 1006.7 |
| 20260506182329 | 50 | 284 | 4.0 | 7.0 | 0.00 | 0.37 | 0.37 | 81 | 1006.7 |
| 20260506181329 | 50 | 286 | 5.0 | 9.0 | 0.00 | 0.37 | 0.37 | 81 | 1006.6 |
| 20260506180329 | 50 | 304 | 3.0 | 7.0 | 0.00 | 0.37 | 0.37 | 81 | 1006.6 |
| 20260506175329 | 50 | 319 | 5.0 | 10.0 | 0.00 | 0.37 | 0.37 | 81 | 1006.6 |
| 20260506174329 | 50 | 269 | 5.0 | 8.0 | 0.00 | 0.37 | 0.37 | 81 | 1006.5 |
| 20260506173329 | 50 | 308 | 3.0 | 7.0 | 0.00 | 0.37 | 0.37 | 81 | 1006.3 |
| 20260506172329 | 50 | 323 | 4.0 | 10.0 | 0.00 | 0.37 | 0.37 | 81 | 1006.3 |
| 20260506171329 | 51 | 280 | 4.0 | 8.0 | 0.00 | 0.37 | 0.37 | 81 | 1006.3 |
| 20260506170329 | 51 | 273 | 4.0 | 8.0 | 0.00 | 0.37 | 0.37 | 81 | 1006.3 |
| 20260506165329 | 51 | 305 | 5.0 | 11.0 | 0.00 | 0.37 | 0.37 | 82 | 1006.2 |
| 20260506164329 | 51 | 345 | 3.0 | 8.0 | 0.00 | 0.37 | 0.37 | 82 | 1006.2 |
| 20260506163329 | 51 | 325 | 4.0 | 10.0 | 0.00 | 0.37 | 0.37 | 82 | 1006.0 |
| 20260506162329 | 51 | 309 | 6.0 | 10.0 | 0.00 | 0.37 | 0.37 | 82 | 1006.1 |
| 20260506161329 | 52 | 296 | 5.0 | 8.0 | 0.00 | 0.37 | 0.37 | 82 | 1006.1 |
| 20260506160329 | 52 | 327 | 4.0 | 9.0 | 0.00 | 0.37 | 0.37 | 82 | 1006.1 |
| 20260506155329 | 52 | 348 | 5.0 | 10.0 | 0.00 | 0.37 | 0.37 | 82 | 1006.0 |
| 20260506154329 | 52 | 290 | 5.0 | 10.0 | 0.00 | 0.37 | 0.37 | 82 | 1005.9 |
| 20260506153329 | 52 | 317 | 4.0 | 10.0 | 0.00 | 0.37 | 0.37 | 82 | 1005.9 |
| 20260506152330 | 53 | 324 | 4.0 | 10.0 | 0.00 | 0.37 | 0.37 | 82 | 1006.0 |
| 20260506151330 | 53 | 306 | 4.0 | 8.0 | 0.00 | 0.37 | 0.37 | 82 | 1006.0 |
| 20260506150330 | 53 | 277 | 3.0 | 8.0 | 0.00 | 0.37 | 0.37 | 81 | 1006.0 |
| 20260506145330 | 53 | 256 | 3.0 | 8.0 | 0.00 | 0.37 | 0.37 | 81 | 1005.8 |
| 20260506144330 | 53 | 340 | 5.0 | 8.0 | 0.00 | 0.37 | 0.37 | 81 | 1005.8 |
| 20260506143330 | 53 | 296 | 4.0 | 8.0 | 0.01 | 0.37 | 0.37 | 81 | 1005.8 |
| 20260506142330 | 53 | 309 | 4.0 | 7.0 | 0.01 | 0.37 | 0.37 | 81 | 1005.8 |
| 20260506141330 | 53 | 332 | 3.0 | 9.0 | 0.01 | 0.37 | 0.37 | 81 | 1005.7 |
| 20260506140330 | 53 | 327 | 3.0 | 8.0 | 0.01 | 0.37 | 0.37 | 81 | 1005.9 |
| 20260506135330 | 53 | 300 | 4.0 | 7.0 | 0.01 | 0.37 | 0.37 | 81 | 1006.0 |
| 20260506134330 | 53 | 297 | 4.0 | 9.0 | 0.01 | 0.37 | 0.37 | 81 | 1005.9 |
| 20260506133330 | 53 | 302 | 5.0 | 9.0 | 0.00 | 0.36 | 0.36 | 81 | 1005.8 |
| 20260506132330 | 53 | 254 | 3.0 | 9.0 | 0.01 | 0.36 | 0.36 | 80 | 1005.8 |
| 20260506131330 | 53 | 336 | 4.0 | 8.0 | 0.01 | 0.36 | 0.36 | 80 | 1005.7 |
| 20260506130330 | 53 | 342 | 3.0 | 5.0 | 0.01 | 0.36 | 0.36 | 81 | 1005.7 |
| 20260506125330 | 52 | 335 | 3.0 | 5.0 | 0.01 | 0.36 | 0.36 | 81 | 1005.7 |
| 20260506124330 | 52 | 333 | 4.0 | 8.0 | 0.01 | 0.36 | 0.36 | 81 | 1005.7 |
| 20260506123330 | 53 | 317 | 3.0 | 7.0 | 0.01 | 0.36 | 0.36 | 81 | 1005.7 |
| 20260506122330 | 52 | 323 | 3.0 | 8.0 | 0.00 | 0.35 | 0.35 | 81 | 1005.6 |
| 20260506121330 | 52 | 298 | 3.0 | 8.0 | 0.00 | 0.35 | 0.35 | 81 | 1005.6 |
| 20260506120330 | 52 | 298 | 3.0 | 7.0 | 0.00 | 0.35 | 0.35 | 81 | 1005.6 |
| 20260506115330 | 52 | 333 | 3.0 | 6.0 | 0.00 | 0.35 | 0.35 | 81 | 1005.4 |
| 20260506114330 | 52 | 272 | 3.0 | 6.0 | 0.00 | 0.35 | 0.35 | 81 | 1005.4 |
| 20260506113330 | 52 | 288 | 2.0 | 6.0 | 0.00 | 0.35 | 0.35 | 81 | 1005.3 |
| 20260506112330 | 52 | 338 | 3.0 | 5.0 | 0.00 | 0.35 | 0.35 | 81 | 1005.3 |
| 20260506111330 | 52 | 333 | 3.0 | 5.0 | 0.00 | 0.35 | 0.35 | 81 | 1005.3 |
| 20260506110330 | 52 | 319 | 2.0 | 5.0 | 0.00 | 0.35 | 0.35 | 81 | 1005.4 |
| 20260506105330 | 52 | 315 | 3.0 | 5.0 | 0.00 | 0.35 | 0.35 | 81 | 1005.3 |
| 20260506104330 | 52 | 323 | 3.0 | 5.0 | 0.00 | 0.35 | 0.35 | 81 | 1005.3 |
| 20260506103330 | 52 | 331 | 2.0 | 6.0 | 0.00 | 0.35 | 0.35 | 81 | 1005.2 |
| 20260506102330 | 52 | 322 | 3.0 | 5.0 | 0.00 | 0.35 | 0.35 | 81 | 1005.2 |
| 20260506101330 | 53 | 338 | 2.0 | 4.0 | 0.00 | 0.35 | 0.35 | 81 | 1005.2 |
| 20260506100330 | 53 | 299 | 3.0 | 4.0 | 0.00 | 0.35 | 0.35 | 82 | 1005.1 |
| 20260506095330 | 53 | 332 | 3.0 | 8.0 | 0.00 | 0.35 | 0.35 | 81 | 1005.1 |
| 20260506094330 | 53 | 54 | 1.0 | 1.0 | 0.00 | 0.35 | 0.35 | 80 | 1005.0 |
| 20260506093330 | 53 | 109 | 1.0 | 4.0 | 0.00 | 0.35 | 0.35 | 80 | 1005.0 |
| 20260506092330 | 53 | 140 | 0.0 | 1.0 | 0.00 | 0.35 | 0.35 | 80 | 1004.9 |
| 20260506091330 | 53 | 81 | 1.0 | 1.0 | 0.01 | 0.35 | 0.35 | 80 | 1004.9 |
| 20260506090330 | 53 | 80 | 1.0 | 3.0 | 0.01 | 0.35 | 0.35 | 80 | 1004.8 |
| 20260506085330 | 53 | 355 | 1.0 | 1.0 | 0.01 | 0.35 | 0.35 | 80 | 1004.8 |
| 20260506084330 | 53 | 355 | 2.0 | 3.0 | 0.01 | 0.35 | 0.35 | 79 | 1004.8 |
| 20260506083330 | 53 | 33 | 2.0 | 4.0 | 0.01 | 0.35 | 0.35 | 79 | 1004.8 |
| 20260506082330 | 52 | 74 | 2.0 | 5.0 | 0.01 | 0.35 | 0.35 | 79 | 1004.7 |
| 20260506081330 | 52 | 81 | 3.0 | 5.0 | 0.01 | 0.35 | 0.35 | 79 | 1004.8 |
| 20260506080331 | 52 | 51 | 3.0 | 4.0 | 0.01 | 0.34 | 0.34 | 79 | 1004.7 |
| 20260506073331 | 51 | 69 | 1.0 | 4.0 | 0.01 | 0.34 | 0.34 | 80 | 1004.6 |
| 20260506072331 | 51 | 62 | 0.0 | 0.0 | 0.01 | 0.34 | 0.34 | 79 | 1004.7 |
| 20260506071331 | 51 | 62 | 0.0 | 0.0 | 0.01 | 0.34 | 0.34 | 80 | 1004.6 |
| 20260506070331 | 51 | 62 | 0.0 | 0.0 | 0.00 | 0.33 | 0.33 | 80 | 1004.7 |
| 20260506062331 | 51 | 57 | 2.0 | 4.0 | 0.00 | 0.33 | 0.33 | 80 | 1004.6 |
| 20260506061331 | 51 | 62 | 0.0 | 3.0 | 0.00 | 0.33 | 0.33 | 80 | 1004.6 |
| 20260506060331 | 51 | 62 | 1.0 | 1.0 | 0.00 | 0.33 | 0.33 | 80 | 1004.6 |
| 20260506051331 | 51 | 66 | 0.0 | 0.0 | 0.02 | 0.34 | 0.33 | 80 | 1004.6 |
| 20260506050331 | 51 | 67 | 0.0 | 0.0 | 0.02 | 0.34 | 0.33 | 80 | 1004.5 |
| 20260506044331 | 51 | 67 | 0.0 | 0.0 | 0.03 | 0.33 | 0.32 | 80 | 1004.5 |
| 20260506043331 | 50 | 67 | 0.0 | 0.0 | 0.04 | 0.34 | 0.32 | 80 | 1004.6 |
| 20260506042331 | 50 | 67 | 0.0 | 0.0 | 0.04 | 0.33 | 0.31 | 80 | 1004.5 |
| 20260506041331 | 50 | 67 | 0.0 | 0.0 | 0.04 | 0.33 | 0.31 | 80 | 1004.6 |
| 20260506040331 | 50 | 67 | 0.0 | 0.0 | 0.06 | 0.33 | 0.31 | 80 | 1004.5 |
| 20260506035331 | 51 | 67 | 0.0 | 2.0 | 0.05 | 0.32 | 0.30 | 80 | 1004.6 |
| 20260506034331 | 51 | 67 | 0.0 | 2.0 | 0.06 | 0.31 | 0.29 | 80 | 1004.7 |
| 20260506033332 | 51 | 67 | 0.0 | 3.0 | 0.05 | 0.31 | 0.28 | 80 | 1004.7 |
| 20260506032331 | 51 | 68 | 1.0 | 0.0 | 0.05 | 0.30 | 0.27 | 80 | 1004.9 |
| 20260506031331 | 51 | 68 | 2.0 | 4.0 | 0.06 | 0.30 | 0.27 | 80 | 1004.9 |
| 20260506030331 | 51 | 88 | 3.0 | 5.0 | 0.04 | 0.28 | 0.25 | 80 | 1004.9 |
| 20260506025331 | 51 | 74 | 2.0 | 4.0 | 0.06 | 0.28 | 0.25 | 81 | 1005.0 |
| 20260506024331 | 51 | 50 | 1.0 | 5.0 | 0.05 | 0.26 | 0.23 | 81 | 1005.2 |
| 20260506023331 | 51 | 13 | 0.0 | 0.0 | 0.06 | 0.26 | 0.23 | 81 | 1005.4 |
| 20260506022331 | 51 | 0 | 0.0 | 0.0 | 0.05 | 0.25 | 0.22 | 81 | 1005.6 |
| 20260506021331 | 51 | 349 | 0.0 | 0.0 | 0.06 | 0.24 | 0.21 | 81 | 1005.5 |
| 20260506020331 | 51 | 349 | 0.0 | 0.0 | 0.06 | 0.24 | 0.21 | 81 | 1005.5 |
| 20260506015331 | 51 | 349 | 0.0 | 0.0 | 0.05 | 0.22 | 0.19 | 81 | 1005.5 |
| 20260506014331 | 51 | 349 | 0.0 | 0.0 | 0.05 | 0.21 | 0.18 | 81 | 1005.6 |
| 20260506013331 | 51 | 348 | 0.0 | 0.0 | 0.05 | 0.20 | 0.17 | 81 | 1005.7 |
| 20260506012331 | 51 | 349 | 0.0 | 0.0 | 0.06 | 0.20 | 0.17 | 81 | 1005.8 |
| 20260506011331 | 51 | 349 | 0.0 | 0.0 | 0.05 | 0.18 | 0.15 | 81 | 1005.8 |
| 20260506010331 | 51 | 348 | 0.0 | 0.0 | 0.06 | 0.18 | 0.15 | 81 | 1005.7 |
| 20260506005331 | 51 | 349 | 0.0 | 0.0 | 0.06 | 0.17 | 0.14 | 81 | 1005.8 |
| 20260506004331 | 51 | 350 | 0.0 | 0.0 | 0.06 | 0.16 | 0.13 | 81 | 1005.8 |
| 20260506003332 | 51 | 350 | 0.0 | 1.0 | 0.05 | 0.15 | 0.12 | 81 | 1005.9 |
| 20260506002332 | 52 | 324 | 0.0 | 0.0 | 0.06 | 0.14 | 0.11 | 81 | 1006.0 |
| 20260506001332 | 52 | 355 | 0.0 | 0.0 | 0.05 | 0.13 | 0.10 | 81 | 1006.1 |
| 20260506000332 | 52 | 321 | 0.0 | 0.0 | 0.05 | 0.12 | 0.09 | 81 | 1006.2 |
| 20260505235332 | 52 | 327 | 0.0 | 2.0 | 0.05 | 0.11 | 0.08 | 81 | 1006.3 |
| 20260505234332 | 52 | 0 | 0.0 | 0.0 | 0.05 | 0.10 | 0.07 | 81 | 1006.4 |
| 20260505233332 | 52 | 355 | 0.0 | 0.0 | 0.06 | 0.11 | 0.07 | 82 | 1006.5 |
| 20260505232332 | 52 | 0 | 1.0 | 3.0 | 0.04 | 0.09 | 0.05 | 82 | 1006.5 |
| 20260505231332 | 52 | 48 | 2.0 | 3.0 | 0.05 | 0.09 | 0.05 | 81 | 1006.5 |
| 20260505230332 | 52 | 355 | 2.0 | 4.0 | 0.04 | 0.08 | 0.04 | 81 | 1006.5 |
| 20260505225332 | 52 | 22 | 2.0 | 5.0 | 0.03 | 0.07 | 0.03 | 81 | 1006.6 |
| 20260505224332 | 52 | 342 | 2.0 | 6.0 | 0.02 | 0.06 | 0.02 | 81 | 1006.6 |
| 20260505223332 | 53 | 328 | 3.0 | 5.0 | 0.01 | 0.05 | 0.01 | 82 | 1006.6 |
| 20260505222332 | 53 | 343 | 2.0 | 6.0 | 0.01 | 0.05 | 0.01 | 82 | 1006.6 |
| 20260505221332 | 53 | 33 | 2.0 | 4.0 | 0.00 | 0.04 | 0.04 | 82 | 1006.6 |
| 20260505220332 | 53 | 315 | 1.0 | 4.0 | 0.00 | 0.04 | 0.04 | 82 | 1006.7 |
| 20260505215332 | 53 | 337 | 2.0 | 5.0 | 0.00 | 0.04 | 0.04 | 82 | 1006.7 |
| 20260505214332 | 53 | 5 | 2.0 | 4.0 | 0.00 | 0.04 | 0.04 | 82 | 1006.8 |
| 20260505213332 | 53 | 355 | 2.0 | 3.0 | 0.00 | 0.04 | 0.04 | 82 | 1006.9 |
| 20260505212332 | 53 | 323 | 2.0 | 6.0 | 0.00 | 0.04 | 0.04 | 82 | 1006.9 |
| 20260505211332 | 54 | 309 | 3.0 | 6.0 | 0.00 | 0.04 | 0.04 | 82 | 1006.9 |
| 20260505210332 | 54 | 323 | 2.0 | 4.0 | 0.00 | 0.04 | 0.04 | 83 | 1007.0 |
| 20260505205332 | 54 | 355 | 1.0 | 5.0 | 0.00 | 0.04 | 0.04 | 83 | 1007.0 |
| 20260505204332 | 54 | 344 | 1.0 | 3.0 | 0.00 | 0.04 | 0.04 | 83 | 1007.0 |
| 20260505203332 | 54 | 340 | 1.0 | 4.0 | 0.00 | 0.04 | 0.04 | 83 | 1007.0 |
| 20260505202332 | 54 | 331 | 1.0 | 4.0 | 0.00 | 0.04 | 0.04 | 83 | 1007.0 |
| 20260505201332 | 54 | 355 | 1.0 | 2.0 | 0.00 | 0.04 | 0.04 | 83 | 1007.0 |
| 20260505200332 | 55 | 349 | 1.0 | 5.0 | 0.00 | 0.04 | 0.04 | 84 | 1007.0 |
| 20260505195332 | 55 | 315 | 2.0 | 3.0 | 0.00 | 0.04 | 0.04 | 84 | 1007.0 |
| 20260505194332 | 55 | 349 | 1.0 | 4.0 | 0.00 | 0.04 | 0.04 | 84 | 1007.0 |
| 20260505193332 | 55 | 34 | 2.0 | 4.0 | 0.00 | 0.11 | 0.04 | 84 | 1006.9 |
| 20260505192332 | 56 | 17 | 2.0 | 7.0 | 0.00 | 0.11 | 0.04 | 85 | 1006.9 |
| 20260505191332 | 56 | 53 | 2.0 | 4.0 | 0.00 | 0.11 | 0.04 | 85 | 1007.0 |